Погода в Верх-Язьве

Россия / Пермский край     60°06′03″N   57°26′44″E
темп.,
°C
ветер,
м/с
пор.,
м/с
влажн.,
%
обл.,
%
осадки,
мм/ч
давл.,
гПа
погр.,
м
4 марта, чт
чт423:00−6юз3796100 0.6 994319
02:00−7юз2696100 0.8 993256
05:00−8юз2696100 1.4 993268
08:00−9юз2596100 0.8 993245
11:00−8юз3594100 1.6 993380
14:00−6юз3592100 0.6 992591
17:00−6ююз3688100 0.8 992701
20:00−10юв229794 0.1 99231
5 марта, пт
пт523:00−8юв269697 0.7 991238
02:00−9вюв2396100 0.2 990107
05:00−9в2296100 0.6 99085
08:00−9св1297100 0.5 99151
11:00−6с1194100 0.9 992222
14:00−5зсз2393100 0.4 994404
17:00−6зсз3595100 1.1 996435
20:00−8зсз3796100 0.8 998388
6 марта, сб
сб623:00−10з3796100 1.4 1000337
02:00−13з3895100 0.6 1002386
05:00−16зюз2697100 0.9 1003229
08:00−18ююз2597100 0.4 1004216
11:00−16юз2494100 0.6 1005340
14:00−14зюз3491100 0.2 1006595
17:00−13з3590100 0.4 1007682
20:00−16зюз2297100 0.1 100729
7 марта, вс
вс723:00−18юз1298100 0.3 100820
02:00−19ю1199100 0.1 100720
05:00−20ю1299100 0.3 100822
08:00−20ююв129997 0.1 100738
11:00−16ююз129295 0.2 1008322
14:00−13юз1284100 0.1 1007743
17:00−14юз1386100 0.3 1007586
20:00−18ю1296100 0.1 100820
8 марта, пн
пн823:00−19ююв229999 0.1 100936
02:00−22юв229892 0.0 100838
05:00−23вюв239691 0.0 100875
08:00−20в3791100 0.0 1006189
11:00−14вюв4890100 0.0 1004370
14:00−11юв4888100 0.2 1002897
17:00−11юв5886100 0.4 1001865
20:00−14в41091100 0.1 1001508